| time (UTC) | temp F | wind direction | speed MPH | gust MPH | rain 1hr in | rain 24hr in | rain mn in | humidity % | barometer mb |
| 20260502182006 | 67 | 226 | 18.0 | 28.0 | 0.00 | 0.00 | 0.00 | 20 | 1013.1 |
| 20260502181605 | 67 | 246 | 19.0 | 28.0 | 0.00 | 0.00 | 0.00 | 23 | 1012.3 |
| 20260502181517 | 67 | 252 | 20.0 | 28.0 | 0.00 | 0.00 | 0.00 | 20 | 1013.1 |
| 20260502181007 | 67 | 243 | 20.0 | 27.0 | 0.00 | 0.00 | 0.00 | 21 | 1013.0 |
| 20260502180507 | 67 | 248 | 19.0 | 28.0 | 0.00 | 0.00 | 0.00 | 22 | 1013.0 |
| 20260502170506 | 65 | 237 | 14.0 | 23.0 | 0.00 | 0.00 | 0.00 | 28 | 1014.3 |
| 20260502164007 | 65 | 279 | 9.0 | 21.0 | 0.00 | 0.00 | 0.00 | 30 | 1014.7 |
| 20260502163509 | 65 | 235 | 16.0 | 21.0 | 0.00 | 0.00 | 0.00 | 28 | 1014.9 |
| 20260502163029 | 64 | 275 | 12.0 | 22.0 | 0.00 | 0.00 | 0.00 | 32 | 1014.3 |
| 20260502163026 | 64 | 248 | 13.0 | 22.0 | 0.00 | 0.00 | 0.00 | 29 | 1014.9 |
| 20260502162510 | 64 | 244 | 16.0 | 22.0 | 0.00 | 0.00 | 0.00 | 29 | 1015.1 |
| 20260502162007 | 64 | 271 | 8.0 | 19.0 | 0.00 | 0.00 | 0.00 | 29 | 1015.1 |
| 20260502161528 | 64 | 260 | 15.0 | 23.0 | 0.00 | 0.00 | 0.00 | 30 | 1015.2 |
| 20260502161007 | 63 | 270 | 15.0 | 24.0 | 0.00 | 0.00 | 0.00 | 30 | 1015.4 |
| 20260502160508 | 63 | 290 | 9.0 | 24.0 | 0.00 | 0.00 | 0.00 | 30 | 1015.5 |
| 20260502152010 | 56 | 235 | 12.0 | 18.0 | 0.00 | 0.00 | 0.00 | 48 | 1016.0 |
| 20260502151553 | 55 | 231 | 11.0 | 16.0 | 0.00 | 0.00 | 0.00 | 50 | 1016.0 |
| 20260502151515 | 55 | 238 | 11.0 | 15.0 | 0.00 | 0.00 | 0.00 | 50 | 1015.6 |
| 20260502151007 | 54 | 219 | 11.0 | 16.0 | 0.00 | 0.00 | 0.00 | 51 | 1016.0 |
| 20260502150512 | 54 | 233 | 10.0 | 16.0 | 0.00 | 0.00 | 0.00 | 54 | 1016.1 |
| 20260502130511 | 40 | 195 | 9.0 | 14.0 | 0.00 | 0.00 | 0.00 | 71 | 1017.2 |
| 20260502123510 | 37 | 174 | 8.0 | 12.0 | 0.00 | 0.00 | 0.00 | 74 | 1017.4 |
| 20260502123033 | 37 | 212 | 6.0 | 12.0 | 0.00 | 0.00 | 0.00 | 74 | 1017.5 |
| 20260502123027 | 37 | 217 | 6.0 | 12.0 | 0.00 | 0.00 | 0.00 | 75 | 1017.2 |
| 20260502122514 | 36 | 214 | 8.0 | 12.0 | 0.00 | 0.00 | 0.00 | 75 | 1017.5 |
| 20260502122007 | 36 | 214 | 7.0 | 10.0 | 0.00 | 0.00 | 0.00 | 76 | 1017.6 |
| 20260502121524 | 35 | 172 | 5.0 | 13.0 | 0.00 | 0.00 | 0.00 | 77 | 1017.3 |
| 20260502121520 | 35 | 204 | 5.0 | 13.0 | 0.00 | 0.00 | 0.00 | 76 | 1017.5 |
| 20260502121007 | 35 | 203 | 7.0 | 13.0 | 0.00 | 0.00 | 0.00 | 76 | 1017.6 |
| 20260502120506 | 34 | 217 | 7.0 | 11.0 | 0.00 | 0.00 | 0.00 | 76 | 1017.5 |
| 20260502115503 | 34 | 212 | 7.0 | 9.0 | 0.00 | 0.00 | 0.00 | 77 | 1017.5 |
| 20260502115003 | 34 | 196 | 7.0 | 10.0 | 0.00 | 0.00 | 0.00 | 77 | 1017.4 |
| 20260502114521 | 34 | 233 | 5.0 | 10.0 | 0.00 | 0.00 | 0.00 | 78 | 1017.1 |
| 20260502114509 | 34 | 174 | 5.0 | 10.0 | 0.00 | 0.00 | 0.00 | 77 | 1017.3 |
| 20260502114003 | 34 | 226 | 7.0 | 12.0 | 0.00 | 0.00 | 0.00 | 77 | 1017.3 |
| 20260502113503 | 34 | 190 | 7.0 | 12.0 | 0.00 | 0.00 | 0.00 | 77 | 1017.2 |
| 20260502113020 | 33 | 198 | 8.0 | 12.0 | 0.00 | 0.00 | 0.00 | 78 | 1017.2 |
| 20260502113012 | 33 | 187 | 8.0 | 12.0 | 0.00 | 0.00 | 0.00 | 77 | 1017.2 |
| 20260502112504 | 33 | 207 | 8.0 | 12.0 | 0.00 | 0.00 | 0.00 | 77 | 1017.3 |
| 20260502112006 | 33 | 202 | 7.0 | 11.0 | 0.00 | 0.00 | 0.00 | 78 | 1017.3 |
| 20260502111520 | 33 | 211 | 7.0 | 10.0 | 0.00 | 0.00 | 0.00 | 78 | 1017.4 |
| 20260502111518 | 33 | 203 | 6.0 | 10.0 | 0.00 | 0.00 | 0.00 | 78 | 1017.3 |
| 20260502111008 | 33 | 191 | 7.0 | 11.0 | 0.00 | 0.00 | 0.00 | 78 | 1017.4 |
| 20260502110507 | 33 | 205 | 7.0 | 11.0 | 0.00 | 0.00 | 0.00 | 78 | 1017.4 |
| 20260502110030 | 33 | 185 | 7.0 | 11.0 | 0.00 | 0.00 | 0.00 | 78 | 1017.5 |
| 20260502110016 | 33 | 200 | 7.0 | 11.0 | 0.00 | 0.00 | 0.00 | 78 | 1017.5 |
| 20260502105507 | 33 | 218 | 8.0 | 10.0 | 0.00 | 0.00 | 0.00 | 78 | 1017.5 |
| 20260502105009 | 33 | 203 | 6.0 | 9.0 | 0.00 | 0.00 | 0.00 | 78 | 1017.6 |
| 20260502104515 | 33 | 212 | 5.0 | 9.0 | 0.00 | 0.00 | 0.00 | 79 | 1017.6 |
| 20260502104507 | 33 | 201 | 6.0 | 11.0 | 0.00 | 0.00 | 0.00 | 78 | 1017.6 |
| 20260502104003 | 33 | 217 | 6.0 | 11.0 | 0.00 | 0.00 | 0.00 | 78 | 1017.7 |
| 20260502103503 | 33 | 211 | 5.0 | 9.0 | 0.00 | 0.00 | 0.00 | 78 | 1017.7 |
| 20260502103019 | 33 | 197 | 5.0 | 9.0 | 0.00 | 0.00 | 0.00 | 78 | 1017.8 |
| 20260502103008 | 33 | 193 | 6.0 | 9.0 | 0.00 | 0.00 | 0.00 | 78 | 1017.7 |
| 20260502102503 | 33 | 174 | 6.0 | 9.0 | 0.00 | 0.00 | 0.00 | 78 | 1017.8 |
| 20260502102004 | 33 | 208 | 5.0 | 9.0 | 0.00 | 0.00 | 0.00 | 78 | 1017.9 |
| 20260502101515 | 33 | 188 | 5.0 | 8.0 | 0.00 | 0.00 | 0.00 | 79 | 1017.9 |
| 20260502101511 | 33 | 167 | 5.0 | 8.0 | 0.00 | 0.00 | 0.00 | 79 | 1017.9 |
| 20260502101007 | 33 | 191 | 4.0 | 8.0 | 0.00 | 0.00 | 0.00 | 79 | 1017.9 |
| 20260502100507 | 33 | 200 | 4.0 | 7.0 | 0.00 | 0.00 | 0.00 | 79 | 1017.9 |
| 20260502091512 | 31 | 218 | 3.0 | 8.0 | 0.00 | 0.00 | 0.00 | 81 | 1018.4 |
| 20260502091006 | 31 | 200 | 3.0 | 6.0 | 0.00 | 0.00 | 0.00 | 81 | 1018.3 |
| 20260502090511 | 31 | 188 | 3.0 | 6.0 | 0.00 | 0.00 | 0.00 | 80 | 1018.4 |
| 20260502080104 | 31 | 202 | 2.0 | 5.0 | 0.00 | 0.00 | 0.00 | 81 | 1018.9 |
| 20260502071525 | 32 | 214 | 4.0 | 6.0 | 0.00 | 0.00 | 0.00 | 78 | 1019.3 |
| 20260502071009 | 32 | 219 | 3.0 | 6.0 | 0.00 | 0.00 | 0.00 | 78 | 1019.4 |
| 20260502070509 | 32 | 167 | 4.0 | 6.0 | 0.00 | 0.00 | 0.00 | 78 | 1019.5 |
| 20260502070042 | 32 | 199 | 2.0 | 6.0 | 0.00 | 0.00 | 0.00 | 79 | 1019.2 |
| 20260502070039 | 32 | 212 | 2.0 | 6.0 | 0.00 | 0.00 | 0.00 | 78 | 1019.5 |
| 20260502065503 | 32 | 145 | 3.0 | 6.0 | 0.00 | 0.00 | 0.00 | 78 | 1019.6 |
| 20260502065007 | 32 | 198 | 3.0 | 5.0 | 0.00 | 0.00 | 0.00 | 78 | 1019.6 |
| 20260502064554 | 32 | 179 | 2.0 | 5.0 | 0.00 | 0.00 | 0.00 | 78 | 1019.4 |
| 20260502064512 | 32 | 172 | 2.0 | 5.0 | 0.00 | 0.00 | 0.00 | 78 | 1019.6 |
| 20260502064008 | 33 | 184 | 2.0 | 5.0 | 0.00 | 0.00 | 0.00 | 78 | 1019.7 |
| 20260502063503 | 33 | 134 | 2.0 | 5.0 | 0.00 | 0.00 | 0.00 | 78 | 1019.6 |
| 20260502063039 | 33 | 216 | 3.0 | 5.0 | 0.00 | 0.00 | 0.00 | 79 | 1019.5 |
| 20260502063033 | 33 | 206 | 3.0 | 5.0 | 0.00 | 0.00 | 0.00 | 78 | 1019.7 |
| 20260502062507 | 33 | 198 | 2.0 | 4.0 | 0.00 | 0.00 | 0.00 | 78 | 1019.6 |
| 20260502062014 | 33 | 203 | 2.0 | 4.0 | 0.00 | 0.00 | 0.00 | 77 | 1019.6 |
| 20260502061535 | 33 | 191 | 2.0 | 5.0 | 0.00 | 0.00 | 0.00 | 77 | 1019.4 |
| 20260502061521 | 33 | 206 | 2.0 | 5.0 | 0.00 | 0.00 | 0.00 | 76 | 1019.6 |
| 20260502061010 | 33 | 210 | 3.0 | 5.0 | 0.00 | 0.00 | 0.00 | 76 | 1019.7 |
| 20260502060507 | 33 | 202 | 4.0 | 5.0 | 0.00 | 0.00 | 0.00 | 76 | 1019.7 |
| 20260502060038 | 34 | 209 | 2.0 | 5.0 | 0.00 | 0.00 | 0.00 | 76 | 1019.4 |
| 20260502060024 | 34 | 150 | 3.0 | 5.0 | 0.00 | 0.00 | 0.00 | 76 | 1019.7 |
| 20260502055509 | 34 | 200 | 3.0 | 5.0 | 0.00 | 0.00 | 0.00 | 75 | 1019.7 |
| 20260502055009 | 34 | 198 | 2.0 | 4.0 | 0.00 | 0.00 | 0.00 | 76 | 1019.8 |
| 20260502054534 | 34 | 198 | 2.0 | 4.0 | 0.00 | 0.00 | 0.00 | 76 | 1019.8 |
| 20260502054532 | 34 | 200 | 2.0 | 4.0 | 0.00 | 0.00 | 0.00 | 77 | 1019.5 |
| 20260502054007 | 34 | 205 | 2.0 | 4.0 | 0.00 | 0.00 | 0.00 | 75 | 1019.8 |
| 20260502053503 | 34 | 191 | 2.0 | 4.0 | 0.00 | 0.00 | 0.00 | 74 | 1019.8 |
| 20260502053029 | 34 | 203 | 2.0 | 3.0 | 0.00 | 0.00 | 0.00 | 75 | 1019.4 |
| 20260502053014 | 34 | 191 | 2.0 | 3.0 | 0.00 | 0.00 | 0.00 | 75 | 1019.8 |
| 20260502052508 | 35 | 175 | 1.0 | 4.0 | 0.00 | 0.00 | 0.00 | 75 | 1019.7 |
| 20260502052009 | 35 | 203 | 3.0 | 4.0 | 0.00 | 0.00 | 0.00 | 75 | 1019.7 |
| 20260502051532 | 35 | 191 | 2.0 | 4.0 | 0.00 | 0.00 | 0.00 | 75 | 1019.4 |
| 20260502051519 | 35 | 195 | 2.0 | 4.0 | 0.00 | 0.00 | 0.00 | 75 | 1019.6 |
| 20260502051010 | 35 | 164 | 1.0 | 3.0 | 0.00 | 0.00 | 0.00 | 73 | 1019.6 |
| 20260502050510 | 35 | 151 | 1.0 | 2.0 | 0.00 | 0.00 | 0.00 | 72 | 1019.6 |
| 20260502050035 | 35 | 155 | 2.0 | 3.0 | 0.00 | 0.00 | 0.00 | 71 | 1019.6 |
| 20260502050026 | 35 | 172 | 1.0 | 3.0 | 0.00 | 0.00 | 0.00 | 72 | 1019.4 |
| 20260502045507 | 36 | 180 | 1.0 | 4.0 | 0.00 | 0.00 | 0.00 | 70 | 1019.7 |
| 20260502045007 | 36 | 188 | 2.0 | 4.0 | 0.00 | 0.00 | 0.00 | 69 | 1019.6 |
| 20260502044533 | 36 | 153 | 1.0 | 5.0 | 0.00 | 0.00 | 0.00 | 69 | 1019.3 |
| 20260502044526 | 36 | 178 | 2.0 | 6.0 | 0.00 | 0.00 | 0.00 | 69 | 1019.5 |
| 20260502044008 | 36 | 167 | 1.0 | 6.0 | 0.00 | 0.00 | 0.00 | 68 | 1019.5 |
| 20260502043509 | 37 | 191 | 2.0 | 4.0 | 0.00 | 0.00 | 0.00 | 67 | 1019.5 |
| 20260502043025 | 37 | 160 | 1.0 | 5.0 | 0.00 | 0.00 | 0.00 | 67 | 1019.5 |
| 20260502043023 | 37 | 161 | 1.0 | 4.0 | 0.00 | 0.00 | 0.00 | 67 | 1019.2 |
| 20260502042511 | 38 | 195 | 1.0 | 5.0 | 0.00 | 0.00 | 0.00 | 67 | 1019.6 |
| 20260502042007 | 38 | 172 | 1.0 | 3.0 | 0.00 | 0.00 | 0.00 | 65 | 1019.7 |
| 20260502041623 | 39 | 158 | 1.0 | 4.0 | 0.00 | 0.00 | 0.00 | 66 | 1019.4 |
| 20260502041522 | 39 | 165 | 2.0 | 4.0 | 0.00 | 0.00 | 0.00 | 65 | 1019.8 |
| 20260502041004 | 39 | 154 | 2.0 | 4.0 | 0.00 | 0.00 | 0.00 | 64 | 1019.9 |
| 20260502040506 | 40 | 207 | 2.0 | 3.0 | 0.00 | 0.00 | 0.00 | 63 | 1019.9 |
| 20260502040035 | 40 | 147 | 1.0 | 3.0 | 0.00 | 0.00 | 0.00 | 63 | 1019.6 |
| 20260502040019 | 40 | 154 | 2.0 | 3.0 | 0.00 | 0.00 | 0.00 | 62 | 1019.9 |
| 20260502035508 | 41 | 147 | 2.0 | 4.0 | 0.00 | 0.00 | 0.00 | 62 | 1019.9 |
| 20260502035008 | 42 | 196 | 2.0 | 4.0 | 0.00 | 0.00 | 0.00 | 61 | 1019.9 |
| 20260502034526 | 42 | 153 | 2.0 | 3.0 | 0.00 | 0.00 | 0.00 | 61 | 1019.9 |
| 20260502034010 | 42 | 142 | 1.0 | 2.0 | 0.00 | 0.00 | 0.00 | 61 | 1019.9 |
| 20260502033507 | 42 | 195 | 0.0 | 1.0 | 0.00 | 0.00 | 0.00 | 58 | 1019.9 |
| 20260502033029 | 42 | 203 | 0.0 | 2.0 | 0.00 | 0.00 | 0.00 | 57 | 1019.9 |
| 20260502033020 | 42 | 203 | 0.0 | 1.0 | 0.00 | 0.00 | 0.00 | 58 | 1019.7 |
| 20260502032509 | 43 | 150 | 1.0 | 2.0 | 0.00 | 0.00 | 0.00 | 57 | 1019.8 |
| 20260502032008 | 43 | 160 | 1.0 | 4.0 | 0.00 | 0.00 | 0.00 | 56 | 1019.8 |
| 20260502031526 | 44 | 153 | 1.0 | 4.0 | 0.00 | 0.00 | 0.00 | 56 | 1019.8 |
| 20260502031520 | 44 | 153 | 0.0 | 4.0 | 0.00 | 0.00 | 0.00 | 56 | 1019.6 |
| 20260502031009 | 45 | 188 | 3.0 | 4.0 | 0.00 | 0.00 | 0.00 | 52 | 1019.7 |
| 20260502030512 | 45 | 117 | 1.0 | 2.0 | 0.00 | 0.00 | 0.00 | 49 | 1019.6 |
| 20260502030023 | 45 | 118 | 0.0 | 2.0 | 0.00 | 0.00 | 0.00 | 52 | 1019.5 |
| 20260502030016 | 45 | 111 | 1.0 | 2.0 | 0.00 | 0.00 | 0.00 | 52 | 1019.7 |
| 20260502025506 | 44 | 116 | 1.0 | 2.0 | 0.00 | 0.00 | 0.00 | 57 | 1019.7 |
| 20260502025006 | 45 | 139 | 1.0 | 2.0 | 0.00 | 0.00 | 0.00 | 57 | 1019.7 |
| 20260502024523 | 45 | 156 | 0.0 | 4.0 | 0.00 | 0.00 | 0.00 | 57 | 1019.4 |
| 20260502024520 | 45 | 156 | 1.0 | 4.0 | 0.00 | 0.00 | 0.00 | 57 | 1019.7 |
| 20260502024009 | 47 | 160 | 1.0 | 4.0 | 0.00 | 0.00 | 0.00 | 52 | 1019.7 |
| 20260502023507 | 48 | 115 | 0.0 | 1.0 | 0.00 | 0.00 | 0.00 | 45 | 1019.7 |
| 20260502023024 | 48 | 110 | 0.0 | 2.0 | 0.00 | 0.00 | 0.00 | 45 | 1019.5 |
| 20260502023018 | 48 | 120 | 0.0 | 2.0 | 0.00 | 0.00 | 0.00 | 45 | 1019.2 |
| 20260502022508 | 48 | 103 | 1.0 | 3.0 | 0.00 | 0.00 | 0.00 | 45 | 1019.5 |
| 20260502022011 | 48 | 124 | 2.0 | 3.0 | 0.00 | 0.00 | 0.00 | 45 | 1019.4 |
| 20260502021525 | 48 | 110 | 1.0 | 2.0 | 0.00 | 0.00 | 0.00 | 45 | 1019.3 |
| 20260502021517 | 48 | 111 | 1.0 | 2.0 | 0.00 | 0.00 | 0.00 | 46 | 1019.1 |
| 20260502021009 | 49 | 124 | 0.0 | 1.0 | 0.00 | 0.00 | 0.00 | 45 | 1019.3 |
| 20260502020508 | 49 | 124 | 0.0 | 2.0 | 0.00 | 0.00 | 0.00 | 44 | 1019.4 |
| 20260502020027 | 50 | 124 | 1.0 | 2.0 | 0.00 | 0.00 | 0.00 | 41 | 1019.2 |
| 20260502020017 | 50 | 124 | 1.0 | 2.0 | 0.00 | 0.00 | 0.00 | 42 | 1018.9 |
| 20260502015510 | 50 | 115 | 1.0 | 2.0 | 0.00 | 0.00 | 0.00 | 41 | 1019.3 |
| 20260502015008 | 51 | 112 | 1.0 | 2.0 | 0.00 | 0.00 | 0.00 | 40 | 1019.3 |
| 20260502014533 | 51 | 103 | 0.0 | 2.0 | 0.00 | 0.00 | 0.00 | 39 | 1018.8 |
| 20260502014517 | 51 | 103 | 1.0 | 2.0 | 0.00 | 0.00 | 0.00 | 39 | 1019.2 |
| 20260502014010 | 51 | 108 | 0.0 | 2.0 | 0.00 | 0.00 | 0.00 | 38 | 1019.2 |
| 20260502013506 | 52 | 101 | 1.0 | 2.0 | 0.00 | 0.00 | 0.00 | 38 | 1019.2 |
| 20260502013020 | 52 | 103 | 1.0 | 4.0 | 0.00 | 0.00 | 0.00 | 37 | 1019.3 |
| 20260502013016 | 52 | 103 | 1.0 | 3.0 | 0.00 | 0.00 | 0.00 | 37 | 1018.9 |
| 20260502012506 | 53 | 79 | 2.0 | 4.0 | 0.00 | 0.00 | 0.00 | 36 | 1019.3 |
| 20260502012008 | 53 | 69 | 2.0 | 4.0 | 0.00 | 0.00 | 0.00 | 35 | 1019.3 |
| 20260502011524 | 53 | 66 | 2.0 | 4.0 | 0.00 | 0.00 | 0.00 | 35 | 1019.3 |
| 20260502011515 | 53 | 64 | 2.0 | 3.0 | 0.00 | 0.00 | 0.00 | 36 | 1018.9 |
| 20260502011009 | 53 | 75 | 3.0 | 5.0 | 0.00 | 0.00 | 0.00 | 34 | 1019.3 |
| 20260502010508 | 54 | 39 | 3.0 | 5.0 | 0.00 | 0.00 | 0.00 | 33 | 1019.3 |
| 20260502010114 | 54 | 60 | 2.0 | 5.0 | 0.00 | 0.00 | 0.00 | 34 | 1019.0 |
| 20260502010033 | 54 | 53 | 3.0 | 5.0 | 0.00 | 0.00 | 0.00 | 33 | 1019.3 |
| 20260502005510 | 54 | 75 | 2.0 | 4.0 | 0.00 | 0.00 | 0.00 | 33 | 1019.3 |
| 20260502005010 | 54 | 56 | 1.0 | 6.0 | 0.00 | 0.00 | 0.00 | 33 | 1019.3 |
| 20260502004530 | 54 | 53 | 1.0 | 8.0 | 0.00 | 0.00 | 0.00 | 33 | 1019.3 |
| 20260502004520 | 54 | 65 | 1.0 | 8.0 | 0.00 | 0.00 | 0.00 | 34 | 1018.9 |
| 20260502004011 | 54 | 37 | 3.0 | 8.0 | 0.00 | 0.00 | 0.00 | 32 | 1019.4 |
| 20260502003508 | 54 | 46 | 4.0 | 7.0 | 0.00 | 0.00 | 0.00 | 32 | 1019.4 |
| 20260502003019 | 54 | 18 | 2.0 | 6.0 | 0.00 | 0.00 | 0.00 | 32 | 1019.4 |
| 20260502003010 | 54 | 23 | 2.0 | 6.0 | 0.00 | 0.00 | 0.00 | 32 | 1018.9 |
| 20260502002511 | 55 | 43 | 4.0 | 6.0 | 0.00 | 0.00 | 0.00 | 32 | 1019.4 |
| 20260502002016 | 55 | 8 | 3.0 | 6.0 | 0.00 | 0.00 | 0.00 | 32 | 1019.5 |
| 20260502001522 | 56 | 326 | 2.0 | 6.0 | 0.00 | 0.00 | 0.00 | 32 | 1019.3 |
| 20260502001515 | 56 | 311 | 1.0 | 6.0 | 0.00 | 0.00 | 0.00 | 32 | 1018.9 |
| 20260502001012 | 55 | 306 | 1.0 | 6.0 | 0.00 | 0.00 | 0.00 | 32 | 1019.4 |
| 20260502000511 | 55 | 32 | 4.0 | 8.0 | 0.00 | 0.00 | 0.00 | 32 | 1019.4 |
| 20260502000039 | 55 | 49 | 5.0 | 9.0 | 0.00 | 0.00 | 0.00 | 32 | 1019.5 |
| 20260502000009 | 55 | 51 | 4.0 | 9.0 | 0.00 | 0.00 | 0.00 | 32 | 1019.0 |
| 20260501235511 | 55 | 34 | 5.0 | 9.0 | 0.00 | 0.00 | 0.00 | 32 | 1019.5 |
| 20260501235010 | 55 | 14 | 4.0 | 12.0 | 0.00 | 0.00 | 0.00 | 32 | 1019.5 |
| 20260501234532 | 55 | 56 | 6.0 | 12.0 | 0.00 | 0.00 | 0.00 | 32 | 1019.6 |
| 20260501234506 | 55 | 43 | 6.0 | 12.0 | 0.00 | 0.00 | 0.00 | 32 | 1019.1 |
| 20260501234010 | 56 | 31 | 5.0 | 9.0 | 0.00 | 0.00 | 0.00 | 31 | 1019.6 |
| 20260501233511 | 56 | 9 | 3.0 | 7.0 | 0.00 | 0.00 | 0.00 | 30 | 1019.5 |
| 20260501233026 | 56 | 312 | 2.0 | 7.0 | 0.00 | 0.00 | 0.00 | 31 | 1019.6 |
| 20260501233005 | 56 | 312 | 2.0 | 7.0 | 0.00 | 0.00 | 0.00 | 32 | 1019.2 |
| 20260501232518 | 56 | 328 | 3.0 | 10.0 | 0.00 | 0.00 | 0.00 | 32 | 1019.6 |
| 20260501232012 | 55 | 49 | 2.0 | 12.0 | 0.00 | 0.00 | 0.00 | 32 | 1019.6 |
| 20260501231522 | 55 | 60 | 7.0 | 12.0 | 0.00 | 0.00 | 0.00 | 32 | 1019.6 |
| 20260501231503 | 55 | 60 | 7.0 | 12.0 | 0.00 | 0.00 | 0.00 | 32 | 1019.2 |
| 20260501231006 | 55 | 77 | 1.0 | 13.0 | 0.00 | 0.00 | 0.00 | 32 | 1019.7 |
| 20260501230511 | 55 | 75 | 5.0 | 13.0 | 0.00 | 0.00 | 0.00 | 33 | 1019.6 |
| 20260501230026 | 55 | 14 | 5.0 | 11.0 | 0.00 | 0.00 | 0.00 | 33 | 1019.6 |
| 20260501230004 | 55 | 14 | 5.0 | 11.0 | 0.00 | 0.00 | 0.00 | 33 | 1019.2 |
| 20260501225507 | 55 | 58 | 5.0 | 11.0 | 0.00 | 0.00 | 0.00 | 32 | 1019.7 |
| 20260501225008 | 55 | 45 | 7.0 | 11.0 | 0.00 | 0.00 | 0.00 | 33 | 1019.8 |
| 20260501224604 | 54 | 349 | 5.0 | 9.0 | 0.00 | 0.00 | 0.00 | 32 | 1019.4 |
| 20260501224539 | 55 | 358 | 6.0 | 11.0 | 0.00 | 0.00 | 0.00 | 31 | 1019.8 |
| 20260501224008 | 55 | 63 | 5.0 | 13.0 | 0.00 | 0.00 | 0.00 | 32 | 1019.8 |
| 20260501223510 | 55 | 53 | 8.0 | 15.0 | 0.00 | 0.00 | 0.00 | 33 | 1019.8 |
| 20260501223058 | 55 | 31 | 7.0 | 15.0 | 0.00 | 0.00 | 0.00 | 34 | 1019.4 |
| 20260501223030 | 55 | 81 | 6.0 | 15.0 | 0.00 | 0.00 | 0.00 | 33 | 1019.7 |
| 20260501222510 | 55 | 41 | 5.0 | 11.0 | 0.00 | 0.00 | 0.00 | 33 | 1019.7 |
| 20260501222013 | 55 | 30 | 6.0 | 11.0 | 0.00 | 0.00 | 0.00 | 33 | 1019.8 |
| 20260501221557 | 55 | 326 | 0.0 | 10.0 | 0.00 | 0.00 | 0.00 | 36 | 1019.4 |
| 20260501221528 | 55 | 300 | 1.0 | 10.0 | 0.00 | 0.00 | 0.00 | 33 | 1019.8 |
| 20260501221011 | 54 | 41 | 4.0 | 10.0 | 0.00 | 0.00 | 0.00 | 32 | 1019.8 |
| 20260501220507 | 54 | 349 | 3.0 | 16.0 | 0.00 | 0.00 | 0.00 | 32 | 1019.9 |
| 20260501220055 | 54 | 342 | 4.0 | 16.0 | 0.00 | 0.00 | 0.00 | 33 | 1019.5 |
| 20260501220025 | 54 | 312 | 7.0 | 16.0 | 0.00 | 0.00 | 0.00 | 32 | 1019.9 |
| 20260501215512 | 54 | 12 | 8.0 | 16.0 | 0.00 | 0.00 | 0.00 | 33 | 1019.9 |
| 20260501215008 | 54 | 297 | 6.0 | 16.0 | 0.00 | 0.00 | 0.00 | 34 | 1019.9 |
| 20260501214553 | 54 | 58 | 4.0 | 11.0 | 0.00 | 0.00 | 0.00 | 32 | 1019.5 |
| 20260501214507 | 54 | 14 | 6.0 | 11.0 | 0.00 | 0.00 | 0.00 | 33 | 1020.0 |
| 20260501214002 | 54 | 18 | 2.0 | 10.0 | 0.00 | 0.00 | 0.00 | 33 | 1020.0 |
| 20260501213506 | 54 | 359 | 4.0 | 14.0 | 0.00 | 0.00 | 0.00 | 32 | 1020.1 |
| 20260501213053 | 54 | 20 | 8.0 | 14.0 | 0.00 | 0.00 | 0.00 | 34 | 1019.7 |
| 20260501213010 | 54 | 325 | 8.0 | 14.0 | 0.00 | 0.00 | 0.00 | 34 | 1020.2 |
| 20260501212503 | 54 | 314 | 6.0 | 12.0 | 0.00 | 0.00 | 0.00 | 33 | 1020.1 |
| 20260501212003 | 54 | 36 | 7.0 | 12.0 | 0.00 | 0.00 | 0.00 | 34 | 1020.2 |
| 20260501211552 | 54 | 58 | 6.0 | 10.0 | 0.00 | 0.00 | 0.00 | 35 | 1019.8 |
| 20260501211520 | 54 | 36 | 5.0 | 9.0 | 0.00 | 0.00 | 0.00 | 34 | 1020.2 |
| 20260501211006 | 53 | 30 | 6.0 | 14.0 | 0.00 | 0.00 | 0.00 | 34 | 1020.2 |
| 20260501210508 | 53 | 24 | 7.0 | 14.0 | 0.00 | 0.00 | 0.00 | 34 | 1020.4 |
| 20260501210056 | 53 | 22 | 6.0 | 13.0 | 0.00 | 0.00 | 0.00 | 34 | 1020.0 |
| 20260501210023 | 53 | 37 | 8.0 | 13.0 | 0.00 | 0.00 | 0.00 | 33 | 1020.5 |
| 20260501205506 | 53 | 30 | 3.0 | 11.0 | 0.00 | 0.00 | 0.00 | 36 | 1020.4 |
| 20260501205008 | 53 | 344 | 7.0 | 15.0 | 0.00 | 0.00 | 0.00 | 34 | 1020.5 |
| 20260501204548 | 53 | 357 | 8.0 | 15.0 | 0.00 | 0.00 | 0.00 | 35 | 1020.1 |
| 20260501204518 | 53 | 44 | 9.0 | 15.0 | 0.00 | 0.00 | 0.00 | 34 | 1020.5 |
| 20260501204009 | 53 | 347 | 7.0 | 15.0 | 0.00 | 0.00 | 0.00 | 35 | 1020.5 |
| 20260501203505 | 53 | 323 | 6.0 | 15.0 | 0.00 | 0.00 | 0.00 | 36 | 1020.5 |
| 20260501203047 | 53 | 49 | 5.0 | 14.0 | 0.00 | 0.00 | 0.00 | 36 | 1020.3 |
| 20260501203008 | 53 | 63 | 5.0 | 12.0 | 0.00 | 0.00 | 0.00 | 35 | 1020.5 |
| 20260501202504 | 52 | 13 | 2.0 | 14.0 | 0.00 | 0.00 | 0.00 | 35 | 1020.7 |
| 20260501202003 | 53 | 73 | 4.0 | 14.0 | 0.00 | 0.00 | 0.00 | 36 | 1020.9 |
| 20260501201546 | 53 | 20 | 4.0 | 11.0 | 0.00 | 0.00 | 0.00 | 38 | 1020.5 |
| 20260501201515 | 53 | 68 | 6.0 | 14.0 | 0.00 | 0.00 | 0.00 | 38 | 1020.8 |
| 20260501201006 | 53 | 338 | 4.0 | 14.0 | 0.00 | 0.00 | 0.00 | 36 | 1020.7 |
| 20260501200508 | 52 | 302 | 8.0 | 12.0 | 0.00 | 0.00 | 0.00 | 37 | 1020.7 |
| 20260501200044 | 52 | 316 | 5.0 | 9.0 | 0.00 | 0.02 | 0.00 | 37 | 1020.4 |
| 20260501200032 | 52 | 352 | 5.0 | 9.0 | 0.00 | 0.00 | 0.00 | 36 | 1020.7 |
| 20260501195507 | 52 | 28 | 5.0 | 11.0 | 0.00 | 0.01 | 0.00 | 36 | 1020.7 |
| 20260501195006 | 52 | 34 | 4.0 | 15.0 | 0.00 | 0.01 | 0.00 | 37 | 1020.7 |
| 20260501194541 | 52 | 319 | 8.0 | 15.0 | 0.00 | 0.02 | 0.00 | 39 | 1020.5 |
| 20260501194523 | 52 | 46 | 7.0 | 15.0 | 0.00 | 0.02 | 0.00 | 37 | 1020.6 |
| 20260501194007 | 51 | 310 | 4.0 | 13.0 | 0.00 | 0.02 | 0.00 | 37 | 1020.6 |
| 20260501193508 | 51 | 352 | 6.0 | 17.0 | 0.00 | 0.02 | 0.00 | 38 | 1020.7 |
| 20260501193040 | 51 | 48 | 6.0 | 17.0 | 0.00 | 0.02 | 0.00 | 39 | 1020.6 |
| 20260501193022 | 51 | 15 | 6.0 | 17.0 | 0.00 | 0.02 | 0.00 | 38 | 1020.8 |
| 20260501192509 | 51 | 43 | 5.0 | 14.0 | 0.00 | 0.02 | 0.00 | 39 | 1020.8 |
| 20260501192008 | 51 | 281 | 4.0 | 11.0 | 0.00 | 0.02 | 0.00 | 38 | 1020.7 |
| 20260501191539 | 51 | 295 | 4.0 | 13.0 | 0.00 | 0.02 | 0.00 | 38 | 1020.6 |
| 20260501191512 | 51 | 317 | 5.0 | 13.0 | 0.00 | 0.02 | 0.00 | 38 | 1020.7 |
| 20260501191006 | 51 | 360 | 4.0 | 14.0 | 0.00 | 0.02 | 0.00 | 40 | 1020.7 |
| 20260501190504 | 50 | 33 | 8.0 | 15.0 | 0.00 | 0.02 | 0.00 | 39 | 1020.7 |
| 20260501190038 | 50 | 20 | 7.0 | 15.0 | 0.00 | 0.02 | 0.00 | 38 | 1020.8 |
| 20260501190014 | 50 | 36 | 7.0 | 15.0 | 0.00 | 0.02 | 0.00 | 37 | 1020.8 |
| 20260501185508 | 50 | 5 | 8.0 | 15.0 | 0.00 | 0.02 | 0.00 | 37 | 1020.8 |
| 20260501185005 | 50 | 40 | 7.0 | 16.0 | 0.00 | 0.02 | 0.00 | 37 | 1020.8 |
| 20260501184536 | 50 | 5 | 9.0 | 16.0 | 0.00 | 0.02 | 0.00 | 39 | 1020.9 |
| 20260501184520 | 50 | 11 | 10.0 | 16.0 | 0.00 | 0.02 | 0.00 | 39 | 1020.9 |
| 20260501184008 | 50 | 309 | 5.0 | 14.0 | 0.00 | 0.02 | 0.00 | 40 | 1020.8 |
| 20260501183509 | 49 | 48 | 8.0 | 14.0 | 0.00 | 0.02 | 0.00 | 39 | 1020.9 |
| 20260501183035 | 50 | 355 | 7.0 | 15.0 | 0.00 | 0.02 | 0.00 | 41 | 1020.9 |
| 20260501183025 | 50 | 337 | 7.0 | 15.0 | 0.00 | 0.02 | 0.00 | 40 | 1020.8 |
| 20260501182508 | 50 | 299 | 7.0 | 15.0 | 0.00 | 0.02 | 0.00 | 41 | 1020.8 |